Location: Limoges
(45.8354°N, 1.2645°E)
Time: 17:50:01
(UTC+02:00)

Vanguard 2 Rocket - Pass Details

Date: 01 March 2024
Orbit: 555 x 3307 km, 32.9° (Epoch: 23 April)

Event Time Altitude Azimuth Distance (km) Brightness Sun altitude
Rises 20:29:00 0° 268° (W) 5,721 12.5 -19.3°
Reaches altitude 10° 20:34:01 10° 253° (WSW) 5,164 11.6 -20.2°
Maximum altitude 20:43:45 19° 215° (SW) 5,046 10.9 -21.9°
Drops below altitude 10° 20:55:21 10° 178° (S) 6,221 11.0 -23.8°
Sets 21:02:35 0° 164° (SSE) 7,270 11.2 -25.0°
